Regional Weather Roundup
Issued by NWS

Home | Current Version | Previous Version | Graphics & Text | Print | Product List | Glossary On
Versions: 1 2 3 4 5 6 7 8 9 10 11 12 13 14 15 16 17 18 19 20 21 22 23 24 25 26 27 28 29 30 31 32 33 34 35 36 37 38 39 40 41 42 43 44 45 46 47 48 49 50
000
ASUS43 KLMK 110010
RWRKY
KENTUCKY REGIONAL WEATHER ROUNDUP
NATIONAL WEATHER SERVICE LOUISVILLE KY
700 PM EST SUN DEC 10 2017

NOTE "FAIR" INDICATES FEW OR NO CLOUDS BELOW 12,000 FEET
WITH NO SIGNIFICANT WEATHER AND/OR OBSTRUCTIONS TO VISIBILITY.

KYZ001>023-026-027-061>063-070>075-110100-
WESTERN AND SOUTH CENTRAL KENTUCKY

CITY           SKY/WX    TMP DP  RH WIND       PRES   REMARKS
PADUCAH        CLEAR     42  28  57 SW6       30.10R
HENDERSON      CLEAR     39  28  64 W8        30.08R WCI  33
OWENSBORO      CLEAR     37  25  61 SW7       30.08R WCI  32
HOPKINSVILLE   CLEAR     38  22  51 SW8       30.11R WCI  32
BOWLING GREEN  CLEAR     42  22  44 SW7       30.11R
GLASGOW        CLEAR     35  21  56 SW3       30.11R
$$

KYZ024-025-028>034-038-045-046-053-110100-
NORTH CENTRAL KENTUCKY

CITY           SKY/WX    TMP DP  RH WIND       PRES   REMARKS
LOUISVILLE/SDF CLEAR     39  20  46 S6        30.06R WCI  35
LOUISVILLE/LOU CLEAR     37  21  52 SW5       30.06R WCI  33
FORT KNOX      CLEAR     35  19  53 SW6       30.05R WCI  30
$$

KYZ035>037-039>044-047>052-055>060-089>105-110100-
NORTHEAST KENTUCKY

CITY           SKY/WX    TMP DP  RH WIND       PRES   REMARKS
LEXINGTON      CLEAR     32  19  58 SW6       30.05R WCI  26
COVINGTON      PTCLDY    33  20  58 SW7       30.01R WCI  27
FRANKFORT      CLEAR     32  18  56 SW5       30.04R WCI  27
$$

KYZ054-064>069-076>088-106>120-110100-
SOUTHEAST KENTUCKY

CITY           SKY/WX    TMP DP  RH WIND       PRES   REMARKS
JACKSON        CLEAR     34  16  47 VRB3      30.03R
LONDON         CLEAR     36  16  44 SW6       30.06R WCI  31
SOMERSET       CLEAR     34  18  51 W6        30.10R WCI  29
MIDDLESBORO    CLEAR     37  20  50 CALM      30.11R
MONTICELLO     CLEAR     36  20  52 W14       30.11R WCI  27
$$




USA.gov is the U.S. government's official web portal to all federal, state and local government web resources and services.